Time,TemperatureF,DewpointF,PressureIn,WindDirection,WindDirectionDegrees,WindSpeedMPH,WindSpeedGustMPH,Humidity,HourlyPrecipIn,Conditions,Clouds,dailyrainin,SoftwareType,DateUTC
2013-05-07 00:02:00,53.0,50.0,29.99,SW,219,5.0,7.0,88,0.00,,,0.00,,2013-05-07 07:02:00,
2013-05-07 00:11:00,53.0,50.0,29.99,SW,219,5.0,7.0,88,0.00,,,0.00,,2013-05-07 07:11:00,
2013-05-07 00:22:00,53.0,50.0,29.99,SW,229,2.0,7.0,88,0.00,,,0.00,,2013-05-07 07:22:00,
2013-05-07 00:31:00,53.0,50.0,30.00,South,178,4.0,9.0,88,0.00,,,0.00,,2013-05-07 07:31:00,
2013-05-07 00:42:00,53.0,50.0,30.00,South,178,4.0,9.0,88,0.00,,,0.00,,2013-05-07 07:42:00,
2013-05-07 00:52:00,53.0,50.0,30.00,West,277,1.0,9.0,88,0.00,,,0.00,,2013-05-07 07:52:00,
2013-05-07 01:02:00,53.0,50.0,30.00,NNW,332,1.0,4.0,88,0.00,,,0.00,,2013-05-07 08:02:00,
2013-05-07 01:11:00,53.0,50.0,30.00,NNW,332,1.0,4.0,88,0.00,,,0.00,,2013-05-07 08:11:00,
2013-05-07 01:21:00,53.0,50.0,30.00,SSW,200,2.0,7.0,88,0.00,,,0.00,,2013-05-07 08:21:00,
2013-05-07 01:31:00,53.0,50.0,29.99,WNW,302,0.0,5.0,88,0.00,,,0.00,,2013-05-07 08:31:00,
2013-05-07 01:41:00,53.0,50.0,29.99,WNW,302,0.0,5.0,88,0.00,,,0.00,,2013-05-07 08:41:00,
2013-05-07 01:52:00,53.0,50.0,29.99,WSW,252,1.0,6.0,88,0.00,,,0.00,,2013-05-07 08:52:00,
2013-05-07 02:01:00,53.0,50.0,29.99,SSW,198,1.0,8.0,88,0.00,,,0.00,,2013-05-07 09:01:00,
2013-05-07 02:11:00,53.0,50.0,29.99,SSW,198,1.0,8.0,88,0.00,,,0.00,,2013-05-07 09:11:00,
2013-05-07 02:22:00,53.0,50.0,29.98,South,184,3.0,7.0,88,0.00,,,0.00,,2013-05-07 09:22:00,
2013-05-07 02:33:00,53.0,49.0,29.98,West,275,0.0,4.0,87,0.00,,,0.00,,2013-05-07 09:33:00,
2013-05-07 02:42:00,53.0,49.0,29.98,West,275,0.0,4.0,87,0.00,,,0.00,,2013-05-07 09:42:00,
2013-05-07 02:52:00,52.0,49.0,29.98,SSE,149,0.0,4.0,88,0.00,,,0.00,,2013-05-07 09:52:00,
2013-05-07 03:02:00,52.0,49.0,29.98,SSW,208,2.0,6.0,88,0.00,,,0.00,,2013-05-07 10:02:00,
2013-05-07 03:12:00,52.0,49.0,29.98,SSW,208,2.0,6.0,88,0.00,,,0.00,,2013-05-07 10:12:00,
2013-05-07 03:22:00,52.0,49.0,29.98,South,190,0.0,1.0,88,0.00,,,0.00,,2013-05-07 10:22:00,
2013-05-07 03:32:00,52.0,49.0,29.98,East,86,2.0,5.0,88,0.00,,,0.00,,2013-05-07 10:32:00,
2013-05-07 03:42:00,52.0,49.0,29.98,East,86,2.0,5.0,88,0.00,,,0.00,,2013-05-07 10:42:00,
2013-05-07 03:52:00,51.0,48.0,29.98,East,88,2.0,5.0,88,0.00,,,0.00,,2013-05-07 10:52:00,
2013-05-07 04:02:00,51.0,48.0,29.98,East,92,1.0,3.0,88,0.00,,,0.00,,2013-05-07 11:02:00,
2013-05-07 04:11:00,51.0,48.0,29.98,East,92,1.0,3.0,88,0.00,,,0.00,,2013-05-07 11:11:00,
2013-05-07 04:21:00,51.0,48.0,29.99,East,94,1.0,3.0,89,0.00,,,0.00,,2013-05-07 11:21:00,
2013-05-07 04:32:00,51.0,48.0,29.99,NW,325,0.0,3.0,89,0.00,,,0.00,,2013-05-07 11:32:00,
2013-05-07 04:42:00,51.0,48.0,29.99,NW,325,0.0,3.0,89,0.00,,,0.00,,2013-05-07 11:42:00,
2013-05-07 04:51:00,51.0,48.0,29.99,SW,221,0.0,2.0,89,0.00,,,0.00,,2013-05-07 11:51:00,
2013-05-07 05:01:00,51.0,48.0,29.99,SE,136,0.0,0.0,90,0.00,,,0.00,,2013-05-07 12:01:00,
2013-05-07 05:11:00,51.0,48.0,29.99,SE,136,0.0,0.0,90,0.00,,,0.00,,2013-05-07 12:11:00,
2013-05-07 05:21:00,51.0,48.0,29.99,SSW,205,1.0,3.0,89,0.00,,,0.00,,2013-05-07 12:21:00,
2013-05-07 05:32:00,52.0,49.0,29.99,NW,317,1.0,6.0,90,0.00,,,0.00,,2013-05-07 12:32:00,
2013-05-07 05:41:00,52.0,49.0,29.99,NW,317,1.0,6.0,90,0.00,,,0.00,,2013-05-07 12:41:00,
2013-05-07 05:52:00,51.0,48.0,29.99,WNW,303,0.0,3.0,88,0.00,,,0.00,,2013-05-07 12:52:00,
2013-05-07 06:02:00,51.0,48.0,30.00,South,189,0.0,4.0,89,0.00,,,0.00,,2013-05-07 13:02:00,
2013-05-07 06:11:00,51.0,48.0,30.00,South,189,0.0,4.0,89,0.00,,,0.00,,2013-05-07 13:11:00,
2013-05-07 06:21:00,50.0,47.0,30.00,ENE,65,1.0,3.0,90,0.00,,,0.00,,2013-05-07 13:21:00,
2013-05-07 06:32:00,50.0,47.0,30.01,SSE,155,0.0,3.0,89,0.00,,,0.00,,2013-05-07 13:32:00,
2013-05-07 06:42:00,50.0,47.0,30.01,SSE,155,0.0,3.0,89,0.00,,,0.00,,2013-05-07 13:42:00,
2013-05-07 06:52:00,50.0,47.0,30.01,SE,139,0.0,0.0,90,0.00,,,0.00,,2013-05-07 13:52:00,
2013-05-07 07:01:00,50.0,47.0,30.01,SE,138,0.0,0.0,90,0.00,,,0.00,,2013-05-07 14:01:00,
2013-05-07 07:11:00,50.0,47.0,30.01,SE,138,0.0,0.0,90,0.00,,,0.00,,2013-05-07 14:11:00,
2013-05-07 07:21:00,50.0,47.0,30.01,SE,138,0.0,0.0,90,0.00,,,0.00,,2013-05-07 14:21:00,
2013-05-07 07:31:00,52.0,49.0,30.02,WSW,246,1.0,5.0,90,0.00,,,0.00,,2013-05-07 14:31:00,
2013-05-07 07:42:00,52.0,49.0,30.02,WSW,246,1.0,5.0,90,0.00,,,0.00,,2013-05-07 14:42:00,
2013-05-07 07:52:00,52.0,49.0,30.02,West,273,0.0,4.0,91,0.00,,,0.00,,2013-05-07 14:52:00,
2013-05-07 08:01:00,52.0,49.0,30.02,WSW,251,1.0,6.0,91,0.00,,,0.00,,2013-05-07 15:01:00,
2013-05-07 08:12:00,52.0,49.0,30.02,WSW,251,1.0,6.0,91,0.00,,,0.00,,2013-05-07 15:12:00,
2013-05-07 08:21:00,52.0,50.0,30.02,West,267,2.0,4.0,92,0.00,,,0.00,,2013-05-07 15:21:00,
2013-05-07 08:33:00,52.0,50.0,30.03,WSW,252,1.0,4.0,92,0.00,,,0.00,,2013-05-07 15:33:00,
2013-05-07 08:42:00,52.0,50.0,30.03,WSW,252,1.0,4.0,92,0.00,,,0.00,,2013-05-07 15:42:00,
2013-05-07 08:52:00,52.0,50.0,30.03,WSW,252,1.0,4.0,92,0.00,,,0.00,,2013-05-07 15:52:00,
2013-05-07 09:03:00,52.0,49.0,30.03,West,275,3.0,7.0,91,0.00,,,0.00,,2013-05-07 16:03:00,
2013-05-07 09:12:00,52.0,49.0,30.03,West,275,3.0,7.0,91,0.00,,,0.00,,2013-05-07 16:12:00,
2013-05-07 09:22:00,53.0,50.0,30.03,West,260,2.0,5.0,90,0.00,,,0.00,,2013-05-07 16:22:00,
2013-05-07 09:32:00,53.0,50.0,30.03,West,271,3.0,6.0,90,0.00,,,0.00,,2013-05-07 16:32:00,
2013-05-07 09:41:00,53.0,50.0,30.03,West,271,3.0,6.0,90,0.00,,,0.00,,2013-05-07 16:41:00,
2013-05-07 09:52:00,53.0,50.0,30.03,West,271,3.0,6.0,90,0.00,,,0.00,,2013-05-07 16:52:00,
2013-05-07 10:01:00,54.0,50.0,30.04,West,281,3.0,7.0,87,0.00,,,0.00,,2013-05-07 17:01:00,
2013-05-07 10:12:00,54.0,50.0,30.04,West,281,3.0,7.0,87,0.00,,,0.00,,2013-05-07 17:12:00,
2013-05-07 10:21:00,54.0,50.0,30.04,West,263,4.0,7.0,87,0.00,,,0.00,,2013-05-07 17:21:00,
2013-05-07 10:31:00,55.0,51.0,30.04,West,268,3.0,10.0,85,0.00,,,0.00,,2013-05-07 17:31:00,
2013-05-07 10:41:00,55.0,51.0,30.04,West,268,3.0,10.0,85,0.00,,,0.00,,2013-05-07 17:41:00,
2013-05-07 10:52:00,55.0,51.0,30.04,West,268,3.0,10.0,85,0.00,,,0.00,,2013-05-07 17:52:00,
2013-05-07 11:01:00,57.0,52.0,30.04,West,275,3.0,8.0,82,0.00,,,0.00,,2013-05-07 18:01:00,
2013-05-07 11:11:00,57.0,52.0,30.04,West,275,3.0,8.0,82,0.00,,,0.00,,2013-05-07 18:11:00,
2013-05-07 11:21:00,57.0,51.0,30.05,West,261,5.0,12.0,81,0.00,,,0.00,,2013-05-07 18:21:00,
2013-05-07 11:31:00,57.0,52.0,30.05,West,260,4.0,14.0,82,0.00,,,0.00,,2013-05-07 18:31:00,
2013-05-07 11:41:00,57.0,52.0,30.05,West,260,4.0,14.0,82,0.00,,,0.00,,2013-05-07 18:41:00,
2013-05-07 11:52:00,57.0,51.0,30.05,SSW,211,4.0,11.0,80,0.00,,,0.00,,2013-05-07 18:52:00,
2013-05-07 12:01:00,57.0,51.0,30.06,WSW,256,5.0,10.0,80,0.00,,,0.00,,2013-05-07 19:01:00,
2013-05-07 12:11:00,57.0,51.0,30.06,WSW,256,5.0,10.0,80,0.00,,,0.00,,2013-05-07 19:11:00,
2013-05-07 12:21:00,57.0,51.0,30.06,WSW,250,5.0,11.0,80,0.00,,,0.00,,2013-05-07 19:21:00,
2013-05-07 12:31:00,57.0,51.0,30.06,SW,219,6.0,12.0,79,0.00,,,0.00,,2013-05-07 19:31:00,
2013-05-07 12:41:00,57.0,51.0,30.06,SW,219,6.0,12.0,79,0.00,,,0.00,,2013-05-07 19:41:00,
2013-05-07 12:52:00,57.0,51.0,30.06,West,263,5.0,11.0,79,0.00,,,0.00,,2013-05-07 19:52:00,
2013-05-07 13:01:00,57.0,51.0,30.06,West,267,5.0,11.0,79,0.00,,,0.00,,2013-05-07 20:01:00,
2013-05-07 13:11:00,57.0,51.0,30.06,West,267,5.0,11.0,79,0.00,,,0.00,,2013-05-07 20:11:00,
2013-05-07 13:21:00,57.0,52.0,30.06,WNW,283,4.0,12.0,84,0.00,,,0.00,,2013-05-07 20:21:00,
2013-05-07 13:32:00,58.0,51.0,30.06,WNW,296,7.0,12.0,78,0.00,,,0.00,,2013-05-07 20:32:00,
2013-05-07 13:41:00,58.0,51.0,30.06,WNW,296,7.0,12.0,78,0.00,,,0.00,,2013-05-07 20:41:00,
2013-05-07 13:52:00,58.0,51.0,30.05,WNW,300,4.0,13.0,78,0.00,,,0.00,,2013-05-07 20:52:00,
2013-05-07 14:01:00,58.0,51.0,30.06,SSW,192,6.0,11.0,78,0.00,,,0.00,,2013-05-07 21:01:00,
2013-05-07 14:11:00,58.0,51.0,30.06,SSW,192,6.0,11.0,78,0.00,,,0.00,,2013-05-07 21:11:00,
2013-05-07 14:21:00,58.0,51.0,30.06,West,277,5.0,13.0,78,0.00,,,0.00,,2013-05-07 21:21:00,
2013-05-07 14:32:00,59.0,52.0,30.06,South,175,3.0,11.0,78,0.00,,,0.00,,2013-05-07 21:32:00,
2013-05-07 14:42:00,59.0,52.0,30.06,South,175,3.0,11.0,78,0.00,,,0.00,,2013-05-07 21:42:00,
2013-05-07 14:53:00,58.0,51.0,30.06,West,262,4.0,12.0,77,0.00,,,0.00,,2013-05-07 21:53:00,
2013-05-07 15:02:00,59.0,52.0,30.06,SSW,192,5.0,12.0,77,0.00,,,0.00,,2013-05-07 22:02:00,
2013-05-07 15:13:00,59.0,52.0,30.06,SSW,192,5.0,12.0,77,0.00,,,0.00,,2013-05-07 22:13:00,
2013-05-07 15:22:00,58.0,52.0,30.06,West,270,5.0,9.0,79,0.00,,,0.00,,2013-05-07 22:22:00,
2013-05-07 15:32:00,58.0,52.0,30.05,West,265,5.0,9.0,80,0.00,,,0.00,,2013-05-07 22:32:00,
2013-05-07 15:42:00,58.0,52.0,30.05,West,265,5.0,9.0,80,0.00,,,0.00,,2013-05-07 22:42:00,
2013-05-07 15:52:00,58.0,51.0,30.05,WSW,248,4.0,12.0,78,0.00,,,0.00,,2013-05-07 22:52:00,
2013-05-07 16:01:00,58.0,51.0,30.05,SSW,213,5.0,10.0,78,0.00,,,0.00,,2013-05-07 23:01:00,
2013-05-07 16:11:00,58.0,51.0,30.05,SSW,213,5.0,10.0,78,0.00,,,0.00,,2013-05-07 23:11:00,
2013-05-07 16:21:00,57.0,51.0,30.05,West,265,4.0,9.0,81,0.00,,,0.00,,2013-05-07 23:21:00,
2013-05-07 16:32:00,56.0,51.0,30.05,WSW,252,5.0,10.0,83,0.00,,,0.00,,2013-05-07 23:32:00,
2013-05-07 16:41:00,56.0,51.0,30.05,WSW,252,5.0,10.0,83,0.00,,,0.00,,2013-05-07 23:41:00,
2013-05-07 16:52:00,55.0,50.0,30.05,West,264,5.0,8.0,84,0.00,,,0.00,,2013-05-07 23:52:00,
2013-05-07 17:01:00,55.0,51.0,30.06,SSW,196,2.0,9.0,86,0.00,,,0.00,,2013-05-08 00:01:00,
2013-05-07 17:11:00,55.0,51.0,30.06,SSW,196,2.0,9.0,86,0.00,,,0.00,,2013-05-08 00:11:00,
2013-05-07 17:21:00,54.0,50.0,30.06,West,277,3.0,8.0,87,0.00,,,0.00,,2013-05-08 00:21:00,
2013-05-07 17:32:00,55.0,51.0,30.06,WNW,288,3.0,7.0,85,0.00,,,0.00,,2013-05-08 00:32:00,
2013-05-07 17:41:00,55.0,51.0,30.06,WNW,288,3.0,7.0,85,0.00,,,0.00,,2013-05-08 00:41:00,
2013-05-07 17:52:00,55.0,50.0,30.06,SW,229,4.0,11.0,83,0.00,,,0.00,,2013-05-08 00:52:00,
2013-05-07 18:01:00,55.0,50.0,30.06,West,265,4.0,9.0,82,0.00,,,0.00,,2013-05-08 01:01:00,
2013-05-07 18:11:00,55.0,50.0,30.06,West,265,4.0,9.0,82,0.00,,,0.00,,2013-05-08 01:11:00,
2013-05-07 18:21:00,55.0,50.0,30.06,SSW,199,3.0,10.0,83,0.00,,,0.00,,2013-05-08 01:21:00,
2013-05-07 18:31:00,55.0,50.0,30.06,West,275,3.0,7.0,84,0.00,,,0.00,,2013-05-08 01:31:00,
2013-05-07 18:42:00,55.0,50.0,30.06,West,275,3.0,7.0,84,0.00,,,0.00,,2013-05-08 01:42:00,
2013-05-07 18:52:00,55.0,50.0,30.06,West,279,2.0,11.0,84,0.00,,,0.00,,2013-05-08 01:52:00,
2013-05-07 19:01:00,54.0,50.0,30.07,West,269,3.0,8.0,86,0.00,,,0.00,,2013-05-08 02:01:00,
2013-05-07 19:12:00,54.0,50.0,30.07,West,269,3.0,8.0,86,0.00,,,0.00,,2013-05-08 02:12:00,
2013-05-07 19:21:00,54.0,50.0,30.06,SW,225,2.0,8.0,85,0.00,,,0.00,,2013-05-08 02:21:00,
2013-05-07 19:31:00,54.0,50.0,30.06,WNW,294,2.0,8.0,85,0.00,,,0.00,,2013-05-08 02:31:00,
2013-05-07 19:42:00,54.0,50.0,30.06,WNW,294,2.0,8.0,85,0.00,,,0.00,,2013-05-08 02:42:00,
2013-05-07 19:52:00,54.0,50.0,30.06,West,270,2.0,7.0,85,0.00,,,0.00,,2013-05-08 02:52:00,
2013-05-07 20:01:00,53.0,49.0,30.06,WNW,292,3.0,7.0,86,0.00,,,0.00,,2013-05-08 03:01:00,
2013-05-07 20:11:00,53.0,49.0,30.06,WNW,292,3.0,7.0,86,0.00,,,0.00,,2013-05-08 03:11:00,
2013-05-07 20:21:00,53.0,49.0,30.06,SSW,204,1.0,5.0,87,0.00,,,0.00,,2013-05-08 03:21:00,
2013-05-07 20:32:00,53.0,49.0,30.07,SSW,205,1.0,5.0,86,0.00,,,0.00,,2013-05-08 03:32:00,
2013-05-07 20:43:00,53.0,49.0,30.07,SSW,205,1.0,5.0,86,0.00,,,0.00,,2013-05-08 03:43:00,
2013-05-07 20:52:00,53.0,49.0,30.06,SSW,209,0.0,8.0,85,0.00,,,0.00,,2013-05-08 03:52:00,
2013-05-07 21:02:00,54.0,50.0,30.07,West,263,3.0,7.0,85,0.00,,,0.00,,2013-05-08 04:02:00,
2013-05-07 21:12:00,54.0,50.0,30.07,West,263,3.0,7.0,85,0.00,,,0.00,,2013-05-08 04:12:00,
2013-05-07 21:22:00,53.0,49.0,30.07,WSW,242,1.0,5.0,86,0.00,,,0.00,,2013-05-08 04:22:00,
2013-05-07 21:32:00,53.0,49.0,30.08,SSW,212,2.0,6.0,86,0.00,,,0.00,,2013-05-08 04:32:00,
2013-05-07 21:42:00,53.0,49.0,30.08,SSW,212,2.0,6.0,86,0.00,,,0.00,,2013-05-08 04:42:00,
2013-05-07 21:53:00,53.0,49.0,30.08,West,259,2.0,6.0,86,0.00,,,0.00,,2013-05-08 04:53:00,
2013-05-07 22:02:00,53.0,49.0,30.09,SSE,153,3.0,7.0,86,0.00,,,0.00,,2013-05-08 05:02:00,
2013-05-07 22:12:00,53.0,49.0,30.09,SSE,153,3.0,7.0,86,0.00,,,0.00,,2013-05-08 05:12:00,
2013-05-07 22:22:00,53.0,49.0,30.09,South,184,1.0,4.0,86,0.00,,,0.00,,2013-05-08 05:22:00,
2013-05-07 22:32:00,53.0,49.0,30.09,SSW,211,3.0,7.0,85,0.00,,,0.00,,2013-05-08 05:32:00,
2013-05-07 22:42:00,53.0,49.0,30.09,SSW,211,3.0,7.0,85,0.00,,,0.00,,2013-05-08 05:42:00,
2013-05-07 22:52:00,53.0,49.0,30.10,SW,214,2.0,5.0,85,0.00,,,0.00,,2013-05-08 05:52:00,
2013-05-07 23:01:00,53.0,48.0,30.10,SSE,147,0.0,6.0,84,0.00,,,0.00,,2013-05-08 06:01:00,
2013-05-07 23:11:00,53.0,48.0,30.10,SSE,147,0.0,6.0,84,0.00,,,0.00,,2013-05-08 06:11:00,
2013-05-07 23:21:00,54.0,49.0,30.10,South,171,1.0,5.0,84,0.00,,,0.00,,2013-05-08 06:21:00,
2013-05-07 23:31:00,53.0,48.0,30.10,SW,217,1.0,6.0,84,0.00,,,0.00,,2013-05-08 06:31:00,
2013-05-07 23:41:00,53.0,48.0,30.10,SW,217,1.0,6.0,84,0.00,,,0.00,,2013-05-08 06:41:00,
2013-05-07 23:52:00,53.0,48.0,30.10,West,273,0.0,6.0,84,0.00,,,0.00,,2013-05-08 06:52:00,